Location: Schommer Observatory
(40.5200°N, 74.4500°W)
Time: 16:11:16
(UTC-05:00)

ISS - Visible Passes

Search period start: 18 November 2018 00:00
Search period end: 28 November 2018 00:00
Orbit: 401 x 409 km, 51.6° (Epoch: 18 November)

Date Brightness Start Highest point End Pass type
(mag) Time Alt. Az. Time Alt. Az. Time Alt. Az.
21 Nov -1.3 18:08:06 10° SSE 18:08:23 11° SSE 18:08:23 11° SSE visible
22 Nov -1.4 18:50:28 10° SW 18:51:31 19° SW 18:51:31 19° SW visible
23 Nov -2.9 17:58:43 10° SSW 18:01:38 31° SE 18:01:52 31° SE visible
24 Nov -1.9 17:07:30 10° S 17:09:39 17° SE 17:11:49 10° E visible
24 Nov -2.2 18:42:40 10° WSW 18:44:47 34° W 18:44:47 34° W visible
25 Nov -3.9 17:50:26 10° SW 17:53:41 82° SE 17:54:56 34° ENE visible
26 Nov -3.1 16:58:29 10° SSW 17:01:34 40° SE 17:04:39 10° ENE visible
26 Nov -2.0 18:35:17 10° W 18:37:40 26° NW 18:37:40 26° NW visible
27 Nov -3.0 17:42:41 10° WSW 17:45:49 42° NNW 17:47:40 20° NNE visible
